Time,TemperatureF,DewpointF,PressureIn,WindDirection,WindDirectionDegrees,WindSpeedMPH,WindSpeedGustMPH,Humidity,HourlyPrecipIn,Conditions,Clouds,dailyrainin,SoftwareType,DateUTC
2013-07-11 00:00:00,79.7,32.0,30.72,South,177,4.0,5.0,10,0.00,PR,BKN,0.00,Misterhouse,2013-07-11 07:00:00,
2013-07-11 00:05:00,79.7,32.0,30.72,South,173,4.0,5.0,10,0.00,PR,BKN,0.00,Misterhouse,2013-07-11 07:05:00,
2013-07-11 00:10:00,79.3,32.0,30.72,South,172,5.0,5.0,10,0.00,PR,BKN,0.00,Misterhouse,2013-07-11 07:10:00,
2013-07-11 00:15:00,79.2,32.0,30.72,SSE,168,3.0,4.0,10,0.00,PR,BKN,0.00,Misterhouse,2013-07-11 07:15:00,
2013-07-11 00:20:00,79.0,32.0,30.72,South,186,4.0,4.0,10,0.00,PR,BKN,0.00,Misterhouse,2013-07-11 07:20:00,
2013-07-11 00:25:00,79.3,32.0,30.72,SSE,158,5.0,5.0,10,0.00,PR,BKN,0.00,Misterhouse,2013-07-11 07:25:00,
2013-07-11 00:30:00,79.0,32.0,30.72,SSE,160,6.0,6.0,10,0.00,PR,BKN,0.00,Misterhouse,2013-07-11 07:30:00,
2013-07-11 00:35:00,79.2,32.0,30.72,SSE,165,4.0,5.0,10,0.00,PR,BKN,0.00,Misterhouse,2013-07-11 07:35:00,
2013-07-11 00:40:00,79.9,32.0,30.72,SW,224,6.0,6.0,10,0.00,PR,BKN,0.00,Misterhouse,2013-07-11 07:40:00,
2013-07-11 00:45:00,79.9,32.0,30.72,SW,215,6.0,6.0,10,0.00,PR,BKN,0.00,Misterhouse,2013-07-11 07:45:00,
2013-07-11 00:50:00,80.1,32.0,30.72,SSW,201,6.0,6.0,10,0.00,PR,BKN,0.00,Misterhouse,2013-07-11 07:50:00,
2013-07-11 00:55:00,79.7,32.0,30.72,South,188,6.0,6.0,10,0.00,PR,BKN,0.00,Misterhouse,2013-07-11 07:55:00,
2013-07-11 01:00:00,79.5,32.0,30.69,South,181,8.0,8.0,10,0.00,RA,OVC,0.00,Misterhouse,2013-07-11 08:00:00,
2013-07-11 01:05:00,79.2,32.0,30.69,SSW,197,9.0,11.0,10,0.00,RA,OVC,0.00,Misterhouse,2013-07-11 08:05:00,
2013-07-11 01:10:00,77.0,32.0,30.69,SSE,164,15.0,15.0,10,0.00,RA,OVC,0.00,Misterhouse,2013-07-11 08:10:00,
2013-07-11 01:15:00,76.3,32.0,30.69,SSE,152,13.0,20.0,10,0.00,RA,OVC,0.00,Misterhouse,2013-07-11 08:15:00,
2013-07-11 01:20:00,75.2,32.0,30.69,SSE,156,16.0,22.0,10,0.00,RA,OVC,0.00,Misterhouse,2013-07-11 08:20:00,
2013-07-11 01:25:00,75.4,32.0,30.69,SSE,162,14.0,14.0,10,0.00,RA,OVC,0.00,Misterhouse,2013-07-11 08:25:00,
2013-07-11 01:30:00,75.6,32.0,30.69,South,182,11.0,11.0,10,0.00,RA,OVC,0.00,Misterhouse,2013-07-11 08:30:00,
2013-07-11 01:35:00,74.3,32.0,30.69,SSE,155,15.0,17.0,13,0.00,RA,OVC,0.00,Misterhouse,2013-07-11 08:35:00,
2013-07-11 01:40:00,73.0,32.0,30.69,SSW,198,18.0,18.0,19,0.00,RA,OVC,0.00,Misterhouse,2013-07-11 08:40:00,
2013-07-11 01:45:00,72.0,33.8,30.69,SSW,192,16.0,22.0,24,0.00,RA,OVC,0.00,Misterhouse,2013-07-11 08:45:00,
2013-07-11 01:50:00,72.3,32.0,30.69,SSE,163,16.0,16.0,21,0.00,RA,OVC,0.00,Misterhouse,2013-07-11 08:50:00,
2013-07-11 01:55:00,72.5,32.0,30.69,SSE,149,17.0,17.0,22,0.00,RA,OVC,0.00,Misterhouse,2013-07-11 08:55:00,
2013-07-11 02:00:00,72.7,32.0,30.72,SSW,205,14.0,17.0,21,0.00,RA,OVC,0.00,Misterhouse,2013-07-11 09:00:00,
2013-07-11 02:05:00,72.9,32.0,30.72,SSE,162,18.0,18.0,22,0.00,RA,OVC,0.00,Misterhouse,2013-07-11 09:05:00,
2013-07-11 02:10:00,70.9,41.0,30.72,SSW,196,19.0,22.0,32,0.00,RA,OVC,0.00,Misterhouse,2013-07-11 09:10:00,
2013-07-11 02:15:00,69.6,39.2,30.72,South,176,14.0,14.0,32,0.00,RA,OVC,0.00,Misterhouse,2013-07-11 09:15:00,
2013-07-11 02:20:00,69.6,39.2,30.72,SSE,159,13.0,17.0,32,0.00,RA,OVC,0.00,Misterhouse,2013-07-11 09:20:00,
2013-07-11 02:25:00,69.6,39.2,30.72,SSW,206,11.0,13.0,33,0.00,RA,OVC,0.00,Misterhouse,2013-07-11 09:25:00,
2013-07-11 02:30:00,69.8,39.2,30.69,SSW,213,11.0,13.0,33,0.00,RA,OVC,0.00,Misterhouse,2013-07-11 09:30:00,
2013-07-11 02:35:00,69.6,39.2,30.69,SSW,199,15.0,15.0,32,0.00,RA,OVC,0.00,Misterhouse,2013-07-11 09:35:00,
2013-07-11 02:40:00,69.1,41.0,30.69,SE,131,14.0,14.0,34,0.00,RA,OVC,0.00,Misterhouse,2013-07-11 09:40:00,
2013-07-11 02:55:00,71.8,32.0,30.69,South,183,13.0,13.0,22,0.00,RA,OVC,0.00,Misterhouse,2013-07-11 09:55:00,
2013-07-11 03:10:00,72.9,32.0,30.69,SSW,206,9.0,9.0,22,0.00,RA,OVC,0.00,Misterhouse,2013-07-11 10:10:00,
2013-07-11 03:20:00,73.0,35.6,30.69,SW,214,14.0,20.0,25,0.00,RA,OVC,0.00,Misterhouse,2013-07-11 10:20:00,
2013-07-11 03:35:00,71.1,33.8,30.69,SSW,204,11.0,13.0,25,0.00,RA,OVC,0.00,Misterhouse,2013-07-11 10:35:00,
2013-07-11 03:40:00,71.2,37.4,30.69,SSW,206,11.0,11.0,28,0.00,RA,OVC,0.00,Misterhouse,2013-07-11 10:40:00,
2013-07-11 03:45:00,71.8,32.0,30.69,SSW,204,11.0,13.0,21,0.00,RA,OVC,0.00,Misterhouse,2013-07-11 10:45:00,
2013-07-11 03:48:00,69.3,39.2,30.69,West,261,17.0,17.0,33,0.00,RA,OVC,0.00,Misterhouse,2013-07-11 10:48:00,
2013-07-11 03:50:00,73.2,32.0,30.69,SSE,166,11.0,13.0,14,0.00,RA,OVC,0.00,Misterhouse,2013-07-11 10:50:00,
2013-07-11 03:53:00,71.4,32.0,30.69,SW,225,13.0,15.0,23,0.00,RA,OVC,0.00,Misterhouse,2013-07-11 10:53:00,
2013-07-11 03:55:00,74.3,32.0,30.69,South,181,13.0,13.0,13,0.00,RA,OVC,0.00,Misterhouse,2013-07-11 10:55:00,
2013-07-11 04:03:00,72.5,32.0,30.69,SW,214,13.0,16.0,16,0.00,RA,OVC,0.00,Misterhouse,2013-07-11 11:03:00,
2013-07-11 04:05:00,73.4,32.0,30.69,South,172,11.0,17.0,11,0.00,RA,OVC,0.00,Misterhouse,2013-07-11 11:05:00,
2013-07-11 04:08:00,72.9,32.0,30.69,SSW,213,10.0,12.0,19,0.00,RA,OVC,0.00,Misterhouse,2013-07-11 11:08:00,
2013-07-11 04:10:00,73.8,32.0,30.69,South,179,12.0,15.0,11,0.00,RA,OVC,0.00,Misterhouse,2013-07-11 11:10:00,
2013-07-11 04:15:00,74.3,32.0,30.69,South,189,10.0,10.0,11,0.00,RA,OVC,0.00,Misterhouse,2013-07-11 11:15:00,
2013-07-11 04:18:00,71.6,33.8,30.69,SW,215,12.0,18.0,25,0.00,RA,OVC,0.00,Misterhouse,2013-07-11 11:18:00,
2013-07-11 04:28:00,72.0,37.4,30.69,SSW,202,14.0,16.0,28,0.00,RA,OVC,0.00,Misterhouse,2013-07-11 11:28:00,
2013-07-11 04:30:00,73.9,32.0,30.69,SSE,163,5.0,6.0,11,0.00,RA,OVC,0.00,Misterhouse,2013-07-11 11:30:00,
2013-07-11 04:33:00,71.2,37.4,30.69,SSW,206,13.0,15.0,29,0.00,RA,OVC,0.00,Misterhouse,2013-07-11 11:33:00,
2013-07-11 04:50:00,71.2,32.0,30.72,South,170,3.0,8.0,22,0.00,RA,OVC,0.00,Misterhouse,2013-07-11 11:50:00,
2013-07-11 04:55:00,72.1,32.0,30.72,South,188,10.0,10.0,14,0.00,RA,OVC,0.00,Misterhouse,2013-07-11 11:55:00,
2013-07-11 05:03:00,73.6,32.0,30.69,South,191,10.0,10.0,11,0.00,RA,OVC,0.00,Misterhouse,2013-07-11 12:03:00,
2013-07-11 05:05:00,74.8,32.0,30.72,South,183,8.0,9.0,11,0.00,RA,OVC,0.00,Misterhouse,2013-07-11 12:05:00,
2013-07-11 05:23:00,74.3,32.0,30.69,South,184,11.0,11.0,11,0.00,RA,OVC,0.00,Misterhouse,2013-07-11 12:23:00,
2013-07-11 05:28:00,73.9,32.0,30.69,South,177,8.0,8.0,11,0.00,RA,OVC,0.00,Misterhouse,2013-07-11 12:28:00,
2013-07-11 05:35:00,73.6,32.0,30.72,SSW,204,10.0,10.0,11,0.00,RA,OVC,0.00,Misterhouse,2013-07-11 12:35:00,
2013-07-11 05:38:00,74.1,32.0,30.69,SSE,158,0.0,0.0,11,0.00,RA,OVC,0.00,Misterhouse,2013-07-11 12:38:00,
2013-07-11 05:40:00,73.0,32.0,30.72,South,175,7.0,8.0,14,0.00,RA,OVC,0.00,Misterhouse,2013-07-11 12:40:00,
2013-07-11 05:43:00,73.2,32.0,30.69,NNE,27,0.0,0.0,16,0.00,RA,OVC,0.00,Misterhouse,2013-07-11 12:43:00,
2013-07-11 05:48:00,72.0,32.0,30.72,WNW,301,2.0,3.0,21,0.00,RA,OVC,0.00,Misterhouse,2013-07-11 12:48:00,
2013-07-11 06:03:00,74.1,32.0,30.72,South,182,8.0,8.0,11,0.00,RA,OVC,0.00,Misterhouse,2013-07-11 13:03:00,
2013-07-11 06:13:00,75.0,32.0,30.72,SSW,195,9.0,9.0,11,0.00,RA,OVC,0.00,Misterhouse,2013-07-11 13:13:00,
2013-07-11 06:18:00,73.9,32.0,30.69,SW,214,7.0,8.0,11,0.00,RA,OVC,0.00,Misterhouse,2013-07-11 13:18:00,
2013-07-11 06:23:00,72.9,32.0,30.69,SSW,199,11.0,11.0,11,0.00,RA,OVC,0.00,Misterhouse,2013-07-11 13:23:00,
2013-07-11 06:28:00,74.1,32.0,30.69,SW,233,4.0,4.0,11,0.00,RA,OVC,0.00,Misterhouse,2013-07-11 13:28:00,
2013-07-11 06:33:00,74.3,32.0,30.72,SSW,202,7.0,8.0,11,0.00,RA,OVC,0.00,Misterhouse,2013-07-11 13:33:00,
2013-07-11 06:48:00,71.8,32.0,30.72,SSW,192,8.0,8.0,22,0.00,RA,OVC,0.00,Misterhouse,2013-07-11 13:48:00,
2013-07-11 06:58:00,70.3,33.8,30.72,South,177,6.0,6.0,26,0.00,RA,OVC,0.00,Misterhouse,2013-07-11 13:58:00,
2013-07-11 07:03:00,70.7,33.8,30.72,South,170,3.0,5.0,24,0.00,RA,OVC,0.00,Misterhouse,2013-07-11 14:03:00,
2013-07-11 07:13:00,71.1,32.0,30.72,South,173,7.0,7.0,23,0.00,RA,OVC,0.00,Misterhouse,2013-07-11 14:13:00,
2013-07-11 07:23:00,72.0,32.0,30.72,SSW,210,12.0,12.0,16,0.00,RA,OVC,0.00,Misterhouse,2013-07-11 14:23:00,
2013-07-11 07:28:00,71.2,32.0,30.72,SSW,200,9.0,9.0,19,0.00,RA,OVC,0.00,Misterhouse,2013-07-11 14:28:00,
2013-07-11 07:33:00,71.4,32.0,30.72,South,189,13.0,13.0,17,0.00,RA,OVC,0.00,Misterhouse,2013-07-11 14:33:00,
2013-07-11 07:38:00,71.8,32.0,30.72,SSW,200,11.0,11.0,14,0.00,RA,OVC,0.00,Misterhouse,2013-07-11 14:38:00,
2013-07-11 07:48:00,72.0,32.0,30.75,SSW,197,8.0,8.0,16,0.00,BC,SCT,0.00,Misterhouse,2013-07-11 14:48:00,
2013-07-11 07:58:00,70.9,32.0,30.75,SSW,196,6.0,8.0,22,0.00,BC,SCT,0.00,Misterhouse,2013-07-11 14:58:00,
2013-07-11 08:03:00,70.9,32.0,30.75,South,177,8.0,11.0,17,0.00,BC,SCT,0.00,Misterhouse,2013-07-11 15:03:00,
2013-07-11 08:13:00,71.2,32.0,30.75,SSE,159,5.0,7.0,19,0.00,BC,SCT,0.00,Misterhouse,2013-07-11 15:13:00,
2013-07-11 08:23:00,71.8,32.0,30.75,SE,134,8.0,8.0,16,0.00,BC,SCT,0.00,Misterhouse,2013-07-11 15:23:00,
2013-07-11 08:28:00,71.6,32.0,30.75,SSE,168,6.0,8.0,19,0.00,BC,SCT,0.00,Misterhouse,2013-07-11 15:28:00,
2013-07-11 08:33:00,72.0,32.0,30.75,South,187,8.0,8.0,19,0.00,BC,SCT,0.00,Misterhouse,2013-07-11 15:33:00,
2013-07-11 08:43:00,72.7,32.0,30.75,SSW,204,9.0,9.0,14,0.00,BC,SCT,0.00,Misterhouse,2013-07-11 15:43:00,
2013-07-11 08:48:00,73.2,32.0,30.75,SSW,203,11.0,11.0,14,0.00,BC,SCT,0.00,Misterhouse,2013-07-11 15:48:00,
2013-07-11 08:53:00,73.8,32.0,30.75,SSW,198,9.0,9.0,13,0.00,BC,SCT,0.00,Misterhouse,2013-07-11 15:53:00,
2013-07-11 08:58:00,74.1,32.0,30.75,South,185,10.0,11.0,11,0.00,BC,SCT,0.00,Misterhouse,2013-07-11 15:58:00,
2013-07-11 09:03:00,74.3,32.0,30.75,South,182,9.0,9.0,11,0.00,BC,SCT,0.00,Misterhouse,2013-07-11 16:03:00,
2013-07-11 09:08:00,74.5,32.0,30.75,SSW,193,5.0,5.0,11,0.00,BC,SCT,0.00,Misterhouse,2013-07-11 16:08:00,
2013-07-11 09:18:00,73.4,32.0,30.75,SSE,152,13.0,13.0,18,0.00,BC,SCT,0.00,Misterhouse,2013-07-11 16:18:00,
2013-07-11 09:28:00,71.6,32.0,30.75,SE,139,15.0,15.0,19,0.00,BC,SCT,0.00,Misterhouse,2013-07-11 16:28:00,
2013-07-11 09:33:00,71.4,32.0,30.75,SSW,204,13.0,13.0,17,0.00,BC,SCT,0.00,Misterhouse,2013-07-11 16:33:00,
2013-07-11 09:38:00,71.4,32.0,30.75,SSE,153,12.0,13.0,17,0.00,BC,SCT,0.00,Misterhouse,2013-07-11 16:38:00,
2013-07-11 09:43:00,71.6,32.0,30.75,South,170,11.0,13.0,16,0.00,BC,SCT,0.00,Misterhouse,2013-07-11 16:43:00,
2013-07-11 09:48:00,72.0,32.0,30.75,SSW,212,10.0,10.0,16,0.00,BC,SCT,0.00,Misterhouse,2013-07-11 16:48:00,
2013-07-11 09:53:00,72.0,32.0,30.75,SSE,162,9.0,11.0,16,0.00,BC,SCT,0.00,Misterhouse,2013-07-11 16:53:00,
2013-07-11 09:58:00,71.8,32.0,30.75,SSE,151,12.0,12.0,14,0.00,BC,SCT,0.00,Misterhouse,2013-07-11 16:58:00,
2013-07-11 10:03:00,71.6,32.0,30.75,South,181,12.0,12.0,14,0.00,BC,SCT,0.00,Misterhouse,2013-07-11 17:03:00,
2013-07-11 10:13:00,71.1,32.0,30.75,South,176,11.0,15.0,17,0.00,BC,SCT,0.00,Misterhouse,2013-07-11 17:13:00,
2013-07-11 10:18:00,71.1,32.0,30.75,South,170,12.0,13.0,14,0.00,BC,SCT,0.00,Misterhouse,2013-07-11 17:18:00,
2013-07-11 10:23:00,71.1,32.0,30.75,South,190,12.0,16.0,17,0.00,BC,SCT,0.00,Misterhouse,2013-07-11 17:23:00,
2013-07-11 10:33:00,71.4,32.0,30.78,SSW,192,11.0,11.0,14,0.00,BC,SCT,0.00,Misterhouse,2013-07-11 17:33:00,
2013-07-11 10:38:00,72.0,32.0,30.78,South,176,11.0,13.0,14,0.00,BC,SCT,0.00,Misterhouse,2013-07-11 17:38:00,
2013-07-11 10:43:00,72.5,32.0,30.78,South,190,10.0,10.0,11,0.00,BC,SCT,0.00,Misterhouse,2013-07-11 17:43:00,
2013-07-11 10:48:00,73.2,32.0,30.75,South,170,9.0,15.0,11,0.00,BC,SCT,0.00,Misterhouse,2013-07-11 17:48:00,
2013-07-11 10:53:00,73.8,32.0,30.75,South,187,11.0,11.0,11,0.00,BC,SCT,0.00,Misterhouse,2013-07-11 17:53:00,
2013-07-11 10:58:00,73.8,32.0,30.75,South,179,9.0,9.0,11,0.00,BC,SCT,0.00,Misterhouse,2013-07-11 17:58:00,
2013-07-11 11:03:00,73.6,32.0,30.75,SSE,168,12.0,12.0,11,0.00,BC,SCT,0.00,Misterhouse,2013-07-11 18:03:00,
2013-07-11 11:08:00,73.9,32.0,30.75,South,181,13.0,15.0,11,0.00,BC,SCT,0.00,Misterhouse,2013-07-11 18:08:00,
2013-07-11 11:18:00,73.9,32.0,30.78,SSE,156,11.0,11.0,11,0.00,BC,SCT,0.00,Misterhouse,2013-07-11 18:18:00,
2013-07-11 11:23:00,74.3,32.0,30.78,SSW,201,10.0,18.0,11,0.00,BC,SCT,0.00,Misterhouse,2013-07-11 18:23:00,
2013-07-11 11:28:00,74.3,32.0,30.78,SSE,165,12.0,12.0,11,0.00,BC,SCT,0.00,Misterhouse,2013-07-11 18:28:00,
2013-07-11 11:33:00,73.9,32.0,30.78,South,179,8.0,8.0,13,0.00,BC,SCT,0.00,Misterhouse,2013-07-11 18:33:00,
2013-07-11 11:38:00,73.6,32.0,30.78,South,185,10.0,11.0,13,0.00,BC,SCT,0.00,Misterhouse,2013-07-11 18:38:00,
2013-07-11 11:48:00,73.9,32.0,30.78,ESE,116,8.0,8.0,13,0.00,BC,SCT,0.00,Misterhouse,2013-07-11 18:48:00,
2013-07-11 11:53:00,74.1,32.0,30.78,South,181,7.0,7.0,13,0.00,BC,SCT,0.00,Misterhouse,2013-07-11 18:53:00,
2013-07-11 11:58:00,74.3,32.0,30.78,SE,136,10.0,10.0,16,0.00,BC,SCT,0.00,Misterhouse,2013-07-11 18:58:00,
2013-07-11 12:03:00,74.8,32.0,30.78,ESE,120,7.0,11.0,18,0.00,BC,SCT,0.00,Misterhouse,2013-07-11 19:03:00,
2013-07-11 12:13:00,75.4,32.0,30.78,SSE,152,11.0,11.0,15,0.00,BC,SCT,0.00,Misterhouse,2013-07-11 19:13:00,
2013-07-11 12:18:00,75.4,32.0,30.78,SSW,194,7.0,7.0,15,0.00,BC,SCT,0.00,Misterhouse,2013-07-11 19:18:00,
2013-07-11 12:23:00,75.7,32.0,30.78,SSE,154,6.0,6.0,15,0.00,BC,SCT,0.00,Misterhouse,2013-07-11 19:23:00,
2013-07-11 12:33:00,77.2,32.0,30.78,SSE,154,8.0,8.0,15,0.00,BC,SCT,0.00,Misterhouse,2013-07-11 19:33:00,
2013-07-11 12:38:00,77.7,32.0,30.78,SSW,207,8.0,8.0,13,0.00,BC,SCT,0.00,Misterhouse,2013-07-11 19:38:00,
2013-07-11 12:43:00,77.7,32.0,30.78,SSW,200,5.0,8.0,13,0.00,BC,SCT,0.00,Misterhouse,2013-07-11 19:43:00,
2013-07-11 12:53:00,77.7,32.0,30.78,SSW,210,6.0,9.0,13,0.00,BC,SCT,0.00,Misterhouse,2013-07-11 19:53:00,
2013-07-11 12:58:00,78.1,32.0,30.78,South,175,7.0,7.0,13,0.00,BC,SCT,0.00,Misterhouse,2013-07-11 19:58:00,
2013-07-11 13:03:00,78.3,32.0,30.78,SSW,199,4.0,4.0,13,0.00,BC,SCT,0.00,Misterhouse,2013-07-11 20:03:00,
2013-07-11 13:08:00,78.6,32.0,30.78,SSE,155,8.0,8.0,13,0.00,BC,SCT,0.00,Misterhouse,2013-07-11 20:08:00,
2013-07-11 13:13:00,77.9,32.0,30.78,SSW,212,8.0,10.0,13,0.00,BC,SCT,0.00,Misterhouse,2013-07-11 20:13:00,
2013-07-11 13:18:00,78.3,32.0,30.78,South,180,9.0,11.0,15,0.00,BC,SCT,0.00,Misterhouse,2013-07-11 20:18:00,
2013-07-11 13:23:00,77.0,32.0,30.78,South,180,9.0,9.0,18,0.00,BC,SCT,0.00,Misterhouse,2013-07-11 20:23:00,
2013-07-11 13:28:00,76.8,32.0,30.78,SW,214,9.0,10.0,18,0.00,BC,SCT,0.00,Misterhouse,2013-07-11 20:28:00,
2013-07-11 13:33:00,76.6,32.0,30.75,SSW,203,8.0,8.0,18,0.00,BC,SCT,0.00,Misterhouse,2013-07-11 20:33:00,
2013-07-11 13:38:00,77.2,32.0,30.75,SSW,192,8.0,8.0,18,0.00,BC,SCT,0.00,Misterhouse,2013-07-11 20:38:00,
2013-07-11 13:53:00,79.2,32.0,30.75,SSW,198,8.0,8.0,12,0.00,BC,SCT,0.00,Misterhouse,2013-07-11 20:53:00,
2013-07-11 14:13:00,80.4,32.0,30.75,SE,131,9.0,9.0,10,0.00,BC,SCT,0.00,Misterhouse,2013-07-11 21:13:00,
2013-07-11 14:18:00,80.1,32.0,30.75,SSE,163,9.0,10.0,10,0.00,BC,SCT,0.00,Misterhouse,2013-07-11 21:18:00,
2013-07-11 14:23:00,81.0,32.0,30.75,South,183,6.0,10.0,9,0.00,BC,SCT,0.00,Misterhouse,2013-07-11 21:23:00,
2013-07-11 14:28:00,81.3,32.0,30.75,SSW,209,8.0,11.0,9,0.00,BC,SCT,0.00,Misterhouse,2013-07-11 21:28:00,
2013-07-11 14:38:00,83.7,32.0,30.75,South,174,6.0,6.0,9,0.00,BC,SCT,0.00,Misterhouse,2013-07-11 21:38:00,
2013-07-11 14:43:00,83.5,32.0,30.75,South,189,6.0,6.0,9,0.00,BC,SCT,0.00,Misterhouse,2013-07-11 21:43:00,
2013-07-11 14:48:00,82.0,32.0,30.75,SW,220,8.0,9.0,9,0.00,BC,SCT,0.00,Misterhouse,2013-07-11 21:48:00,
2013-07-11 14:53:00,81.5,32.0,30.75,SSW,206,7.0,7.0,9,0.00,BC,SCT,0.00,Misterhouse,2013-07-11 21:53:00,
2013-07-11 14:58:00,81.0,32.0,30.75,SSW,206,9.0,9.0,9,0.00,BC,SCT,0.00,Misterhouse,2013-07-11 21:58:00,
2013-07-11 15:03:00,79.9,32.0,30.75,SSW,192,8.0,8.0,10,0.00,BC,SCT,0.00,Misterhouse,2013-07-11 22:03:00,
2013-07-11 15:08:00,80.2,32.0,30.75,SW,216,7.0,7.0,10,0.00,BC,SCT,0.00,Misterhouse,2013-07-11 22:08:00,
2013-07-11 15:13:00,79.5,32.0,30.75,SSE,157,8.0,8.0,10,0.00,BC,SCT,0.00,Misterhouse,2013-07-11 22:13:00,
2013-07-11 15:18:00,78.4,32.0,30.72,South,175,8.0,11.0,10,0.00,BC,SCT,0.00,Misterhouse,2013-07-11 22:18:00,
2013-07-11 15:28:00,77.0,32.0,30.72,SSE,159,11.0,12.0,10,0.00,BC,SCT,0.00,Misterhouse,2013-07-11 22:28:00,
2013-07-11 15:33:00,76.6,32.0,30.72,SSE,161,12.0,15.0,10,0.00,BC,SCT,0.00,Misterhouse,2013-07-11 22:33:00,
2013-07-11 15:38:00,76.3,32.0,30.72,SSW,210,10.0,10.0,10,0.00,BC,SCT,0.00,Misterhouse,2013-07-11 22:38:00,
2013-07-11 15:43:00,76.1,32.0,30.72,South,180,12.0,12.0,10,0.00,BC,SCT,0.00,Misterhouse,2013-07-11 22:43:00,
2013-07-11 15:53:00,75.6,32.0,30.72,South,172,11.0,11.0,13,0.00,BC,SCT,0.00,Misterhouse,2013-07-11 22:53:00,
2013-07-11 15:58:00,75.4,32.0,30.72,South,175,10.0,10.0,13,0.00,BC,SCT,0.00,Misterhouse,2013-07-11 22:58:00,
2013-07-11 16:08:00,75.4,32.0,30.72,South,169,11.0,13.0,15,0.00,BC,SCT,0.00,Misterhouse,2013-07-11 23:08:00,
2013-07-11 16:13:00,75.2,32.0,30.72,South,175,11.0,11.0,18,0.00,BC,SCT,0.00,Misterhouse,2013-07-11 23:13:00,
2013-07-11 16:23:00,74.7,32.0,30.72,South,172,15.0,15.0,13,0.00,BC,SCT,0.00,Misterhouse,2013-07-11 23:23:00,
2013-07-11 16:28:00,74.7,32.0,30.72,SSE,165,13.0,13.0,16,0.00,BC,SCT,0.00,Misterhouse,2013-07-11 23:28:00,
2013-07-11 16:33:00,74.5,32.0,30.72,South,182,12.0,15.0,21,0.00,BC,SCT,0.00,Misterhouse,2013-07-11 23:33:00,
2013-07-11 16:43:00,74.3,32.0,30.72,SSW,199,13.0,13.0,21,0.00,BC,SCT,0.00,Misterhouse,2013-07-11 23:43:00,
2013-07-11 16:48:00,74.1,32.0,30.72,South,190,13.0,13.0,18,0.00,BC,SCT,0.00,Misterhouse,2013-07-11 23:48:00,
2013-07-11 16:53:00,74.5,32.0,30.72,SSE,162,14.0,14.0,21,0.00,BC,SCT,0.00,Misterhouse,2013-07-11 23:53:00,
2013-07-11 16:58:00,74.8,32.0,30.72,South,177,14.0,14.0,16,0.00,BC,SCT,0.00,Misterhouse,2013-07-11 23:58:00,
2013-07-11 17:03:00,75.0,32.0,30.72,South,187,11.0,14.0,16,0.00,BC,SCT,0.00,Misterhouse,2013-07-12 00:03:00,
2013-07-11 17:08:00,75.6,32.0,30.72,SSW,204,10.0,10.0,13,0.00,BC,SCT,0.00,Misterhouse,2013-07-12 00:08:00,
2013-07-11 17:13:00,75.9,32.0,30.72,South,173,9.0,11.0,13,0.00,BC,SCT,0.00,Misterhouse,2013-07-12 00:13:00,
2013-07-11 17:23:00,76.3,32.0,30.72,South,172,11.0,15.0,10,0.00,BC,SCT,0.00,Misterhouse,2013-07-12 00:23:00,
2013-07-11 17:33:00,75.9,32.0,30.72,South,177,12.0,12.0,13,0.00,BC,SCT,0.00,Misterhouse,2013-07-12 00:33:00,
2013-07-11 17:38:00,75.6,32.0,30.72,South,169,11.0,13.0,15,0.00,BC,SCT,0.00,Misterhouse,2013-07-12 00:38:00,
2013-07-11 17:43:00,75.2,32.0,30.72,SSE,152,13.0,13.0,20,0.00,BC,SCT,0.00,Misterhouse,2013-07-12 00:43:00,
2013-07-11 17:48:00,74.8,32.0,30.69,SSW,195,13.0,13.0,21,0.00,RA,OVC,0.00,Misterhouse,2013-07-12 00:48:00,
2013-07-11 17:53:00,74.8,33.8,30.69,SSW,213,13.0,15.0,22,0.00,RA,OVC,0.00,Misterhouse,2013-07-12 00:53:00,
2013-07-11 17:58:00,74.5,33.8,30.69,SSE,165,15.0,15.0,22,0.00,RA,OVC,0.00,Misterhouse,2013-07-12 00:58:00,
2013-07-11 18:03:00,74.7,35.6,30.69,SSW,199,11.0,11.0,23,0.00,RA,OVC,0.00,Misterhouse,2013-07-12 01:03:00,
2013-07-11 18:08:00,74.7,33.8,30.69,SSW,200,12.0,15.0,22,0.00,RA,OVC,0.00,Misterhouse,2013-07-12 01:08:00,
2013-07-11 18:13:00,74.5,32.0,30.69,SSW,192,12.0,13.0,18,0.00,RA,OVC,0.00,Misterhouse,2013-07-12 01:13:00,
2013-07-11 18:18:00,74.7,33.8,30.69,South,177,13.0,13.0,22,0.00,RA,OVC,0.00,Misterhouse,2013-07-12 01:18:00,
2013-07-11 18:23:00,74.5,32.0,30.69,South,172,13.0,15.0,18,0.00,RA,OVC,0.00,Misterhouse,2013-07-12 01:23:00,
2013-07-11 18:28:00,74.5,33.8,30.69,SSE,168,13.0,13.0,22,0.00,RA,OVC,0.00,Misterhouse,2013-07-12 01:28:00,
2013-07-11 18:38:00,73.9,37.4,30.69,SSE,162,14.0,15.0,27,0.00,RA,OVC,0.00,Misterhouse,2013-07-12 01:38:00,
2013-07-11 18:53:00,73.4,39.2,30.69,SSW,199,12.0,16.0,28,0.00,RA,OVC,0.00,Misterhouse,2013-07-12 01:53:00,
2013-07-11 18:58:00,73.6,37.4,30.69,South,171,13.0,15.0,27,0.00,RA,OVC,0.00,Misterhouse,2013-07-12 01:58:00,
2013-07-11 19:03:00,73.4,37.4,30.69,SSE,156,13.0,13.0,27,0.00,RA,OVC,0.00,Misterhouse,2013-07-12 02:03:00,
2013-07-11 19:08:00,72.9,35.6,30.69,South,191,15.0,15.0,25,0.00,RA,OVC,0.00,Misterhouse,2013-07-12 02:08:00,
2013-07-11 19:13:00,73.0,35.6,30.69,South,174,15.0,15.0,25,0.00,RA,OVC,0.00,Misterhouse,2013-07-12 02:13:00,
2013-07-11 19:18:00,73.2,37.4,30.69,South,191,15.0,17.0,27,0.00,RA,OVC,0.00,Misterhouse,2013-07-12 02:18:00,
2013-07-11 19:23:00,72.9,39.2,30.69,SSE,168,15.0,17.0,29,0.00,RA,OVC,0.00,Misterhouse,2013-07-12 02:23:00,
2013-07-11 19:28:00,73.0,41.0,30.69,South,177,13.0,14.0,31,0.00,RA,OVC,0.00,Misterhouse,2013-07-12 02:28:00,
2013-07-11 19:33:00,73.0,37.4,30.69,South,185,14.0,15.0,26,0.00,RA,OVC,0.00,Misterhouse,2013-07-12 02:33:00,
2013-07-11 19:43:00,73.2,33.8,30.69,South,184,16.0,17.0,23,0.00,RA,OVC,0.00,Misterhouse,2013-07-12 02:43:00,
2013-07-11 19:48:00,73.0,33.8,30.69,SSW,208,16.0,18.0,23,0.00,RA,OVC,0.00,Misterhouse,2013-07-12 02:48:00,
2013-07-11 19:53:00,73.0,37.4,30.69,SSW,198,14.0,14.0,26,0.00,RA,OVC,0.00,Misterhouse,2013-07-12 02:53:00,
2013-07-11 20:00:00,71.8,35.6,30.72,South,183,15.0,15.0,27,0.00,RA,OVC,0.00,Misterhouse,2013-07-12 03:00:00,
2013-07-11 20:03:00,72.9,37.4,30.69,South,170,16.0,16.0,26,0.00,RA,OVC,0.00,Misterhouse,2013-07-12 03:03:00,
2013-07-11 20:05:00,71.6,35.6,30.72,SSE,165,13.0,13.0,26,0.00,RA,OVC,0.00,Misterhouse,2013-07-12 03:05:00,
2013-07-11 20:10:00,72.0,33.8,30.72,South,184,11.0,13.0,25,0.00,RA,OVC,0.00,Misterhouse,2013-07-12 03:10:00,
2013-07-11 20:13:00,72.5,37.4,30.69,SSW,197,14.0,17.0,27,0.00,RA,OVC,0.00,Misterhouse,2013-07-12 03:13:00,
2013-07-11 20:15:00,72.0,33.8,30.72,SSW,196,11.0,13.0,25,0.00,RA,OVC,0.00,Misterhouse,2013-07-12 03:15:00,
2013-07-11 20:20:00,71.6,35.6,30.72,South,179,14.0,14.0,27,0.00,RA,OVC,0.00,Misterhouse,2013-07-12 03:20:00,
2013-07-11 20:23:00,72.1,33.8,30.69,South,186,12.0,12.0,25,0.00,RA,OVC,0.00,Misterhouse,2013-07-12 03:23:00,
2013-07-11 20:25:00,71.4,37.4,30.72,SSE,165,11.0,11.0,28,0.00,RA,OVC,0.00,Misterhouse,2013-07-12 03:25:00,
2013-07-11 20:28:00,72.1,33.8,30.69,South,187,12.0,17.0,24,0.00,RA,OVC,0.00,Misterhouse,2013-07-12 03:28:00,
2013-07-11 20:30:00,71.2,39.2,30.72,South,182,10.0,10.0,31,0.00,RA,OVC,0.00,Misterhouse,2013-07-12 03:30:00,
2013-07-11 20:33:00,72.1,33.8,30.69,South,186,14.0,15.0,24,0.00,RA,OVC,0.00,Misterhouse,2013-07-12 03:33:00,
2013-07-11 20:35:00,71.2,35.6,30.72,SSE,149,14.0,18.0,27,0.00,RA,OVC,0.00,Misterhouse,2013-07-12 03:35:00,
2013-07-11 20:40:00,71.1,35.6,30.72,SSW,197,14.0,14.0,26,0.00,RA,OVC,0.00,Misterhouse,2013-07-12 03:40:00,
2013-07-11 20:43:00,72.1,33.8,30.69,South,179,13.0,13.0,25,0.00,RA,OVC,0.00,Misterhouse,2013-07-12 03:43:00,
2013-07-11 20:45:00,71.1,35.6,30.72,SSE,154,11.0,11.0,27,0.00,RA,OVC,0.00,Misterhouse,2013-07-12 03:45:00,
2013-07-11 20:48:00,72.1,33.8,30.69,SSE,159,16.0,16.0,24,0.00,RA,OVC,0.00,Misterhouse,2013-07-12 03:48:00,
2013-07-11 20:50:00,70.7,37.4,30.72,South,185,14.0,14.0,28,0.00,RA,OVC,0.00,Misterhouse,2013-07-12 03:50:00,
2013-07-11 20:53:00,72.0,33.8,30.69,SSW,197,12.0,12.0,25,0.00,RA,OVC,0.00,Misterhouse,2013-07-12 03:53:00,
2013-07-11 20:55:00,71.2,33.8,30.72,South,179,15.0,15.0,24,0.00,RA,OVC,0.00,Misterhouse,2013-07-12 03:55:00,
2013-07-11 20:58:00,72.0,35.6,30.69,SSW,200,13.0,16.0,26,0.00,RA,OVC,0.00,Misterhouse,2013-07-12 03:58:00,
2013-07-11 21:00:00,71.6,32.0,30.72,SSW,194,15.0,15.0,23,0.00,RA,OVC,0.00,Misterhouse,2013-07-12 04:00:00,
2013-07-11 21:05:00,71.6,32.0,30.72,SSE,159,15.0,15.0,22,0.00,RA,OVC,0.00,Misterhouse,2013-07-12 04:05:00,
2013-07-11 21:10:00,71.8,32.0,30.72,South,189,15.0,19.0,22,0.00,RA,OVC,0.00,Misterhouse,2013-07-12 04:10:00,
2013-07-11 21:15:00,71.6,32.0,30.72,SSE,157,12.0,15.0,19,0.00,RA,OVC,0.00,Misterhouse,2013-07-12 04:15:00,
2013-07-11 21:20:00,71.6,32.0,30.72,South,191,15.0,20.0,19,0.00,RA,OVC,0.00,Misterhouse,2013-07-12 04:20:00,
2013-07-11 21:25:00,71.6,32.0,30.72,SSW,200,11.0,13.0,21,0.00,RA,OVC,0.00,Misterhouse,2013-07-12 04:25:00,
2013-07-11 21:30:00,71.8,32.0,30.72,South,177,14.0,15.0,21,0.00,RA,OVC,0.00,Misterhouse,2013-07-12 04:30:00,
2013-07-11 21:35:00,71.6,32.0,30.72,SSE,166,12.0,15.0,19,0.00,RA,OVC,0.00,Misterhouse,2013-07-12 04:35:00,
2013-07-11 21:40:00,71.6,32.0,30.72,SSW,194,13.0,13.0,21,0.00,RA,OVC,0.00,Misterhouse,2013-07-12 04:40:00,
2013-07-11 21:45:00,71.6,32.0,30.72,SSW,198,15.0,19.0,22,0.00,RA,OVC,0.00,Misterhouse,2013-07-12 04:45:00,
2013-07-11 21:50:00,71.4,33.8,30.72,South,182,13.0,13.0,24,0.00,RA,OVC,0.00,Misterhouse,2013-07-12 04:50:00,
2013-07-11 21:55:00,71.2,32.0,30.72,SSE,168,13.0,13.0,22,0.00,RA,OVC,0.00,Misterhouse,2013-07-12 04:55:00,
2013-07-11 22:00:00,71.4,32.0,30.72,SSE,154,14.0,17.0,17,0.00,RA,OVC,0.00,Misterhouse,2013-07-12 05:00:00,
2013-07-11 22:05:00,71.6,32.0,30.72,South,173,14.0,14.0,22,0.00,RA,OVC,0.00,Misterhouse,2013-07-12 05:05:00,
2013-07-11 22:10:00,71.2,32.0,30.72,SSE,164,12.0,13.0,22,0.00,RA,OVC,0.00,Misterhouse,2013-07-12 05:10:00,
2013-07-11 22:15:00,71.1,32.0,30.72,South,170,9.0,9.0,17,0.00,RA,OVC,0.00,Misterhouse,2013-07-12 05:15:00,
2013-07-11 22:20:00,71.6,32.0,30.72,SSE,152,12.0,12.0,14,0.00,RA,OVC,0.00,Misterhouse,2013-07-12 05:20:00,
2013-07-11 22:25:00,71.6,32.0,30.72,South,172,11.0,11.0,14,0.00,RA,OVC,0.00,Misterhouse,2013-07-12 05:25:00,
2013-07-11 22:30:00,71.6,32.0,30.72,South,191,11.0,11.0,11,0.00,RA,OVC,0.00,Misterhouse,2013-07-12 05:30:00,
2013-07-11 22:35:00,71.6,32.0,30.72,South,183,12.0,12.0,11,0.00,RA,OVC,0.00,Misterhouse,2013-07-12 05:35:00,
2013-07-11 22:40:00,71.4,32.0,30.72,SSW,199,10.0,10.0,12,0.00,RA,OVC,0.00,Misterhouse,2013-07-12 05:40:00,
2013-07-11 22:45:00,71.2,32.0,30.72,SSW,198,10.0,10.0,12,0.00,RA,OVC,0.00,Misterhouse,2013-07-12 05:45:00,
2013-07-11 22:50:00,71.2,32.0,30.72,SSW,200,11.0,13.0,14,0.00,RA,OVC,0.00,Misterhouse,2013-07-12 05:50:00,
2013-07-11 22:55:00,70.9,32.0,30.72,South,178,12.0,12.0,14,0.00,RA,OVC,0.00,Misterhouse,2013-07-12 05:55:00,
2013-07-11 23:00:00,71.2,32.0,30.72,South,188,12.0,13.0,14,0.00,RA,OVC,0.00,Misterhouse,2013-07-12 06:00:00,
2013-07-11 23:05:00,71.1,32.0,30.72,SSE,157,13.0,13.0,14,0.00,RA,OVC,0.00,Misterhouse,2013-07-12 06:05:00,
2013-07-11 23:10:00,71.1,32.0,30.72,South,173,13.0,13.0,14,0.00,RA,OVC,0.00,Misterhouse,2013-07-12 06:10:00,
2013-07-11 23:15:00,70.9,32.0,30.72,South,181,11.0,11.0,17,0.00,RA,OVC,0.00,Misterhouse,2013-07-12 06:15:00,
2013-07-11 23:20:00,70.9,32.0,30.72,South,172,11.0,13.0,19,0.00,RA,OVC,0.00,Misterhouse,2013-07-12 06:20:00,
2013-07-11 23:25:00,71.1,32.0,30.72,SSW,199,12.0,13.0,22,0.00,RA,OVC,0.00,Misterhouse,2013-07-12 06:25:00,
2013-07-11 23:30:00,70.9,33.8,30.72,South,170,14.0,15.0,24,0.00,RA,OVC,0.00,Misterhouse,2013-07-12 06:30:00,
2013-07-11 23:35:00,70.9,35.6,30.72,South,188,12.0,12.0,27,0.00,RA,OVC,0.00,Misterhouse,2013-07-12 06:35:00,
2013-07-11 23:40:00,70.9,39.2,30.72,South,186,11.0,11.0,31,0.00,RA,OVC,0.00,Misterhouse,2013-07-12 06:40:00,
2013-07-11 23:45:00,71.1,41.0,30.72,South,185,12.0,17.0,32,0.00,RA,OVC,0.00,Misterhouse,2013-07-12 06:45:00,
2013-07-11 23:50:00,70.7,41.0,30.72,SSW,207,9.0,9.0,32,0.00,RA,OVC,0.00,Misterhouse,2013-07-12 06:50:00,
2013-07-11 23:55:00,70.7,41.0,30.72,South,190,10.0,15.0,32,0.00,RA,OVC,0.00,Misterhouse,2013-07-12 06:55:00,